Mount Airy, NC

3:03 PM EST on December 05, 2019 (GMT -0500)
Mount Airy-Surry County

Weather History for KMWK - June, 2019

Change the Weather History Date:

Saturday, June 1, 2019

  Actual Average (KINT) Record (KINT)
Temperature  
Mean Temperature 70 °F -  
Max Temperature 81 °F 78 °F 95 °F (1991)
Min Temperature 60 °F 59 °F 37 °F (1966)
Cooling Degree Days 6    
Growing Degree Days 20 (Base 50)    
Moisture  
Dew Point 60 °F    
Average Humidity 72    
Maximum Humidity 89    
Minimum Humidity 49    
Precipitation  
Precipitation 0.00 in - - ()
Sea Level Pressure  
Sea Level Pressure 29.91 in    
Wind  
Wind Speed 3 mph ()    
Max Wind Speed 9 mph    
Max Gust Speed -    
Visibility 10.0 miles    
Events Rain    
Averages and records for this station are not official NWS values.
T = Trace of Precipitation, MM = Missing Value Source: Averaged Metar Reports

Daily Weather History Graph

Daily Weather History Graph

Search for Another Location

Airport or City:

Astronomy

Jun. 01, 2019 Rise Set
Actual Time 6:05 AM EDT 8:34 PM EDT
Civil Twilight 5:35 AM EDT 9:04 PM EDT
Nautical Twilight 4:58 AM EDT 9:41 PM EDT
Astronomical Twilight 4:17 AM EDT 10:22 PM EDT
Moon 5:04 AM EDT (6/1) 6:50 PM EDT (6/1)
Length of Visible Light 15h 28m
Length of Day
14h 29m
Waning Crescent, 4% of the Moon is Illuminated
Jun 1
Waning Crescent
Jun 3
New
Jun 10
First Quarter
Jun 17
Full
Jun 25
Last Quarter

Hourly Weather History & Observations

Time (EDT) Temp. Heat Index Dew Point Humidity Pressure Visibility Wind Dir Wind Speed Gust Speed Precip Events Conditions
12:00 AM 62.8 °F - 57.7 °F 84% 29.92 in 10.0 mi West 3.5 mph - N/A   Clear
12:20 AM 63.5 °F - 57.7 °F 81% 29.92 in 10.0 mi WNW 3.5 mph - N/A   Clear
12:40 AM 62.1 °F - 57.2 °F 84% 29.92 in 10.0 mi NW 4.6 mph - N/A   Clear
1:00 AM 62.2 °F - 57.2 °F 84% 29.92 in 10.0 mi Calm Calm - N/A   Clear
1:20 AM 61.2 °F - 56.7 °F 85% 29.92 in 10.0 mi Calm Calm - N/A   Clear
1:40 AM 60.6 °F - 56.5 °F 86% 29.91 in 10.0 mi Calm Calm - N/A   Clear
2:00 AM 60.8 °F - 56.3 °F 85% 29.91 in 10.0 mi Calm Calm - N/A   Clear
2:20 AM 60.4 °F - 56.3 °F 86% 29.90 in 10.0 mi Calm Calm - N/A   Clear
2:40 AM 61.0 °F - 56.3 °F 85% 29.90 in 10.0 mi Calm Calm - N/A   Clear
3:00 AM 61.7 °F - 56.5 °F 83% 29.90 in 10.0 mi NNW 3.5 mph - N/A   Clear
3:20 AM 62.8 °F - 57.2 °F 82% 29.89 in 10.0 mi NW 5.8 mph - N/A   Clear
3:40 AM 62.8 °F - 57.2 °F 82% 29.90 in 10.0 mi North 4.6 mph - N/A   Clear
4:00 AM 62.6 °F - 57.2 °F 82% 29.89 in 10.0 mi NNW 4.6 mph - N/A   Clear
4:40 AM 62.6 °F - 57.2 °F 82% 29.89 in 10.0 mi NW 4.6 mph - N/A   Clear
5:00 AM 62.6 °F - 57.0 °F 82% 29.89 in 10.0 mi NW 3.5 mph - N/A   Clear
5:20 AM 62.6 °F - 57.0 °F 82% 29.89 in 10.0 mi NW 3.5 mph - N/A   Clear
5:40 AM 62.6 °F - 57.2 °F 82% 29.90 in 10.0 mi NW 3.5 mph - N/A   Clear
6:00 AM 62.6 °F - 57.2 °F 82% 29.90 in 10.0 mi NW 4.6 mph - N/A   Clear
6:20 AM 62.6 °F - 57.2 °F 82% 29.91 in 10.0 mi NW 5.8 mph - N/A   Clear
6:40 AM 62.8 °F - 57.2 °F 82% 29.91 in 10.0 mi NW 4.6 mph - N/A   Clear
7:20 AM 64.6 °F - 58.5 °F 80% 29.93 in 10.0 mi NNW 3.5 mph - N/A   Clear
7:40 AM 65.5 °F - 59.2 °F 80% 29.93 in 10.0 mi NW 4.6 mph - N/A   Clear
8:00 AM 65.7 °F - 59.4 °F 80% 29.93 in 10.0 mi WNW 4.6 mph - N/A   Clear
8:20 AM 67.6 °F - 60.3 °F 77% 29.94 in 10.0 mi NNW 6.9 mph - N/A   Clear
8:40 AM 68.7 °F - 60.6 °F 75% 29.94 in 10.0 mi NNW 3.5 mph - N/A   Clear
9:00 AM 69.6 °F - 61.0 °F 74% 29.94 in 10.0 mi NW 6.9 mph - N/A   Clear
9:20 AM 69.8 °F - 60.3 °F 72% 29.94 in 10.0 mi NNW 6.9 mph - N/A   Clear
9:40 AM 71.1 °F - 60.6 °F 69% 29.95 in 10.0 mi NNW 6.9 mph - N/A   Clear
10:00 AM 72.1 °F - 61.3 °F 69% 29.95 in 10.0 mi NW 6.9 mph - N/A   Clear
10:20 AM 72.5 °F - 61.2 °F 67% 29.95 in 10.0 mi NW 9.2 mph - N/A   Clear
10:40 AM 72.0 °F - 61.3 °F 69% 29.95 in 10.0 mi North 3.5 mph - N/A   Clear
11:00 AM 73.6 °F - 62.2 °F 68% 29.95 in 10.0 mi NW 5.8 mph - N/A   Clear
11:20 AM 74.3 °F - 61.9 °F 65% 29.95 in 10.0 mi NW 6.9 mph - N/A   Clear
11:40 AM 75.9 °F - 63.0 °F 64% 29.95 in 10.0 mi WNW 3.5 mph - N/A   Clear
12:00 PM 75.0 °F - 62.8 °F 66% 29.95 in 10.0 mi Calm Calm - N/A   Scattered Clouds
12:20 PM 75.6 °F - 62.4 °F 64% 29.95 in 10.0 mi North 3.5 mph - N/A   Clear
12:40 PM 76.1 °F - 62.4 °F 62% 29.94 in 10.0 mi Calm Calm - N/A   Clear
1:00 PM 77.7 °F - 63.1 °F 61% 29.93 in 10.0 mi WNW 3.5 mph - N/A   Scattered Clouds
1:20 PM 76.6 °F - 62.6 °F 62% 29.93 in 10.0 mi Calm Calm - N/A   Mostly Cloudy
1:40 PM 74.8 °F - 61.3 °F 63% 29.93 in 10.0 mi Calm Calm - N/A   Overcast
2:00 PM 76.3 °F - 62.1 °F 61% 29.92 in 10.0 mi Calm Calm - N/A   Scattered Clouds
2:20 PM 78.1 °F - 64.0 °F 62% 29.91 in 10.0 mi South 5.8 mph - N/A   Clear
2:40 PM 78.3 °F - 62.1 °F 57% 29.91 in 10.0 mi ESE 4.6 mph - N/A   Clear
3:00 PM 80.1 °F 81.2 °F 62.2 °F 54% 29.90 in 10.0 mi East 3.5 mph - N/A   Clear
3:20 PM 81.1 °F 82.1 °F 61.9 °F 52% 29.90 in 10.0 mi ENE 5.8 mph - N/A   Scattered Clouds
3:40 PM 80.1 °F 81.0 °F 60.3 °F 51% 29.90 in 10.0 mi Calm Calm - N/A   Scattered Clouds
4:00 PM 81.3 °F 82.5 °F 62.8 °F 53% 29.89 in 10.0 mi ESE 8.1 mph - N/A   Clear
4:20 PM 80.2 °F 81.2 °F 61.2 °F 52% 29.89 in 10.0 mi East 6.9 mph - N/A   Clear
4:40 PM 80.6 °F 81.6 °F 61.7 °F 52% 29.89 in 10.0 mi East 6.9 mph - N/A   Clear
5:00 PM 81.5 °F 82.4 °F 61.5 °F 51% 29.89 in 10.0 mi ESE 3.5 mph - N/A   Clear
5:20 PM 80.6 °F 81.4 °F 60.3 °F 50% 29.89 in 10.0 mi SE 4.6 mph - N/A   Scattered Clouds
5:40 PM 80.2 °F 80.9 °F 59.7 °F 49% 29.88 in 10.0 mi Calm Calm - N/A   Scattered Clouds
6:20 PM 80.6 °F 81.2 °F 59.5 °F 49% 29.88 in 10.0 mi ENE 3.5 mph - N/A   Scattered Clouds
6:40 PM 80.6 °F 81.2 °F 59.7 °F 49% 29.88 in 10.0 mi Calm Calm - N/A   Clear
7:00 PM 79.3 °F - 60.1 °F 52% 29.88 in 10.0 mi Calm Calm - N/A   Clear
7:20 PM 77.9 °F - 60.4 °F 55% 29.88 in 10.0 mi Calm Calm - N/A   Scattered Clouds
7:40 PM 77.4 °F - 62.4 °F 60% 29.89 in 10.0 mi Calm Calm - N/A   Scattered Clouds
8:00 PM 75.2 °F - 64.0 °F 68% 29.89 in 10.0 mi Calm Calm - N/A   Scattered Clouds
8:20 PM 75.6 °F - 63.7 °F 66% 29.90 in 10.0 mi Calm Calm - N/A Rain Light Rain
8:40 PM 72.0 °F - 66.2 °F 82% 29.89 in 10.0 mi Calm Calm - N/A Rain Light Rain
9:00 PM 70.5 °F - 65.7 °F 85% 29.90 in 10.0 mi NNW 4.6 mph - N/A Rain Rain
9:20 PM 70.7 °F - 65.3 °F 83% 29.90 in 10.0 mi Calm Calm - N/A Rain Light Rain
9:40 PM 70.5 °F - 65.7 °F 85% 29.91 in 10.0 mi North 5.8 mph - N/A Rain Light Rain
10:00 PM 68.4 °F - 64.6 °F 88% 29.92 in 10.0 mi South 5.8 mph - N/A   Scattered Clouds
10:20 PM 65.5 °F - 60.8 °F 85% 29.92 in 10.0 mi South 4.6 mph - N/A   Scattered Clouds
10:40 PM 63.7 °F - 59.9 °F 87% 29.94 in 10.0 mi SSW 5.8 mph - N/A Rain Light Rain
11:00 PM 62.8 °F - 59.4 °F 89% 29.93 in 10.0 mi Calm Calm - N/A   Scattered Clouds
11:20 PM 63.5 °F - 60.1 °F 89% 29.92 in 10.0 mi Calm Calm - N/A   Clear
11:40 PM 63.1 °F - 59.5 °F 88% 29.92 in 10.0 mi NW 5.8 mph - N/A   Clear